Tracking 29511 objects as of 17-Sep-2024
HD Live streaming from Space Station
objects crossing your sky now

FENGYUN 1C DEB

Track FENGYUN 1C DEB now!
10-day predictions


NORAD ID: 41832
Int'l Code: 1999-025EYK
Perigee: 792.3 km
Apogee: 878.5 km
Inclination: 98.8 °
Period: 101.5 minutes
Semi major axis: 7206 km
RCS: Unknown
Launch date: May 10, 1999
Source: People's Republic of China (PRC)
Launch site: Taiyaun Space Center, China (TSC)

Note: This is SATELLITE DEBRIS
Your satellite tracking list
Your tracking list is empty




NASA's NSSDC Master Catalog

Two Line Element Set (TLE):
1 41832U 99025EYK 24260.10380424  .00009422  00000-0  44383-2 0  9990
2 41832  98.7647 321.8860 0059760  95.1783 265.6216 14.19144481409175
Source of the keplerian elements: AFSPC